DLH370 EDDG-EDDH

Flight info

Callsign DLH370
Flight time 0h 34m
Altitude 23000
Route OSN9X OSN DCT STADE/N0361F240 DCT RIBSO RIBSO3P
Aircraft A20N/M-SDE2E3FGHIRWXY/LB1

Departure

Time 2026-04-23 20:33
Airport Münster Osnabrück Airport (EDDG)

Arrival

Time 2026-04-23 21:07
Airport Hamburg Helmut Schmidt Airport (EDDH)
Time Latitude Longitude Altitude Speed Heading
2026-04-23 20:16 52.13176 7.69393 167 ft 0 kts 197°
2026-04-23 20:27 52.13189 7.69399 167 ft 2 kts 197°
2026-04-23 20:27 52.13205 7.69407 167 ft 2 kts 196°
2026-04-23 20:28 52.13221 7.69414 167 ft 2 kts 196°
2026-04-23 20:28 52.13237 7.69422 167 ft 2 kts 199°
2026-04-23 20:28 52.13251 7.69433 167 ft 1 kts 244°
2026-04-23 20:28 52.13252 7.69435 167 ft 0 kts 249°
2026-04-23 20:29 52.13251 7.69432 167 ft 2 kts 249°
2026-04-23 20:30 52.13241 7.69369 167 ft 9 kts 265°
2026-04-23 20:30 52.13378 7.69250 167 ft 15 kts 342°
2026-04-23 20:30 52.13462 7.69309 167 ft 16 kts 64°
2026-04-23 20:31 52.13504 7.69497 167 ft 19 kts 70°
2026-04-23 20:31 52.13551 7.69714 168 ft 21 kts 71°
2026-04-23 20:31 52.13597 7.69930 168 ft 21 kts 68°
2026-04-23 20:31 52.13717 7.70023 167 ft 22 kts 345°
2026-04-23 20:32 52.13765 7.69926 167 ft 7 kts 257°
2026-04-23 20:32 52.13764 7.69919 167 ft 0 kts 254°
2026-04-23 20:32 52.13693 7.69569 169 ft 79 kts 251°
2026-04-23 20:33 52.13417 7.68282 196 ft 156 kts 252°
2026-04-23 20:33 52.13041 7.66606 1029 ft 158 kts 253°
2026-04-23 20:33 52.12669 7.64894 1976 ft 163 kts 257°
2026-04-23 20:33 52.12288 7.63045 2687 ft 182 kts 258°
2026-04-23 20:34 52.11873 7.60993 3260 ft 206 kts 257°
2026-04-23 20:34 52.11395 7.58661 3901 ft 228 kts 256°
2026-04-23 20:34 52.10857 7.56155 4624 ft 241 kts 250°
2026-04-23 20:34 52.09822 7.53966 4936 ft 251 kts 220°
2026-04-23 20:35 52.08223 7.52822 4949 ft 255 kts 188°
2026-04-23 20:35 52.06480 7.53110 4947 ft 253 kts 156°
2026-04-23 20:35 52.04971 7.54554 4949 ft 251 kts 140°
2026-04-23 20:35 52.03800 7.56549 4950 ft 245 kts 115°
2026-04-23 20:36 52.03305 7.59135 4949 ft 238 kts 88°
2026-04-23 20:36 52.03547 7.61723 4961 ft 230 kts 63°
2026-04-23 20:36 52.03976 7.63322 4964 ft 242 kts 62°
2026-04-23 20:36 52.04698 7.65967 4975 ft 261 kts 63°
2026-04-23 20:37 52.05635 7.69589 5048 ft 264 kts 64°
2026-04-23 20:37 52.06327 7.72372 5535 ft 267 kts 65°
2026-04-23 20:37 52.07014 7.75174 5872 ft 266 kts 65°
2026-04-23 20:37 52.07475 7.77068 5961 ft 267 kts 65°
2026-04-23 20:38 52.08160 7.79836 6007 ft 267 kts 64°
2026-04-23 20:38 52.08869 7.82622 5992 ft 266 kts 64°
2026-04-23 20:38 52.09576 7.85416 6002 ft 266 kts 64°
2026-04-23 20:38 52.10273 7.88212 5994 ft 267 kts 65°
2026-04-23 20:39 52.10961 7.91011 5993 ft 266 kts 65°
2026-04-23 20:39 52.11645 7.93816 6033 ft 269 kts 65°
2026-04-23 20:39 52.12337 7.96663 6519 ft 272 kts 65°
2026-04-23 20:39 52.13023 7.99495 7568 ft 271 kts 65°
2026-04-23 20:40 52.13803 8.02271 8624 ft 270 kts 52°
2026-04-23 20:40 52.15090 8.04481 9649 ft 269 kts 38°
2026-04-23 20:40 52.16512 8.06560 10434 ft 284 kts 43°
2026-04-23 20:40 52.17884 8.09089 10779 ft 312 kts 49°
2026-04-23 20:41 52.19204 8.12067 10966 ft 329 kts 55°
2026-04-23 20:41 52.20373 8.15319 11610 ft 335 kts 60°
2026-04-23 20:41 52.21376 8.18766 12598 ft 338 kts 65°
2026-04-23 20:41 52.22190 8.22412 13470 ft 345 kts 71°
2026-04-23 20:42 52.22788 8.26198 14284 ft 351 kts 72°
2026-04-23 20:42 52.23822 8.29799 14920 ft 352 kts 54°
2026-04-23 20:42 52.25460 8.32744 15203 ft 351 kts 39°
2026-04-23 20:42 52.27435 8.35088 15308 ft 351 kts 31°
2026-04-23 20:43 52.29547 8.37084 15317 ft 351 kts 28°
2026-04-23 20:43 52.31708 8.38934 15316 ft 350 kts 26°
2026-04-23 20:43 52.33879 8.40749 15317 ft 350 kts 26°
2026-04-23 20:43 52.36048 8.42576 15316 ft 350 kts 27°
2026-04-23 20:44 52.38210 8.44423 15349 ft 352 kts 27°
2026-04-23 20:44 52.40384 8.46302 15862 ft 356 kts 27°
2026-04-23 20:44 52.42562 8.48201 16673 ft 358 kts 27°
2026-04-23 20:44 52.44783 8.50145 17400 ft 363 kts 27°
2026-04-23 20:45 52.47031 8.52119 18098 ft 369 kts 27°
2026-04-23 20:45 52.49313 8.54125 18793 ft 373 kts 28°
2026-04-23 20:45 52.51612 8.56149 19443 ft 376 kts 27°
2026-04-23 20:45 52.53936 8.58198 20008 ft 381 kts 27°
2026-04-23 20:46 52.56274 8.60263 20233 ft 382 kts 27°
2026-04-23 20:46 52.58599 8.62317 20293 ft 383 kts 27°
2026-04-23 20:46 52.60948 8.64396 20298 ft 382 kts 27°
2026-04-23 20:46 52.63287 8.66467 20298 ft 382 kts 27°
2026-04-23 20:47 52.65560 8.68744 20292 ft 383 kts 37°
2026-04-23 20:47 52.67548 8.71705 20450 ft 388 kts 42°
2026-04-23 20:47 52.69509 8.74777 21146 ft 389 kts 42°
2026-04-23 20:47 52.71453 8.77815 21810 ft 391 kts 42°
2026-04-23 20:48 52.73446 8.80909 22424 ft 395 kts 41°
2026-04-23 20:48 52.75468 8.84036 23004 ft 400 kts 41°
2026-04-23 20:48 52.77507 8.87186 23248 ft 402 kts 41°
2026-04-23 20:48 52.79552 8.90349 23300 ft 402 kts 41°
2026-04-23 20:49 52.81594 8.93512 23308 ft 402 kts 41°
2026-04-23 20:49 52.83633 8.96677 23306 ft 402 kts 41°
2026-04-23 20:49 52.85671 8.99848 23304 ft 401 kts 41°
2026-04-23 20:49 52.87704 9.03014 23306 ft 401 kts 41°
2026-04-23 20:50 52.89714 9.06151 23302 ft 401 kts 41°
2026-04-23 20:50 52.91745 9.09325 23303 ft 401 kts 41°
2026-04-23 20:50 52.93779 9.12507 23302 ft 401 kts 41°
2026-04-23 20:50 52.95811 9.15690 23301 ft 401 kts 41°
2026-04-23 20:51 52.97839 9.18874 23300 ft 401 kts 40°
2026-04-23 20:51 52.99863 9.22058 23294 ft 401 kts 40°
2026-04-23 20:51 53.01897 9.25260 23237 ft 402 kts 40°
2026-04-23 20:51 53.03923 9.28453 22971 ft 400 kts 40°
2026-04-23 20:52 53.05910 9.31594 22717 ft 397 kts 40°
2026-04-23 20:52 53.07907 9.34757 22447 ft 396 kts 40°
2026-04-23 20:52 53.09901 9.37917 22180 ft 394 kts 40°
2026-04-23 20:52 53.11884 9.41066 21923 ft 392 kts 40°
2026-04-23 20:53 53.13859 9.44205 21667 ft 391 kts 40°
2026-04-23 20:53 53.15825 9.47334 21410 ft 389 kts 40°
2026-04-23 20:53 53.17780 9.50450 21152 ft 388 kts 40°
2026-04-23 20:53 53.19704 9.53520 20907 ft 387 kts 40°
2026-04-23 20:54 53.21643 9.56619 20668 ft 385 kts 40°
2026-04-23 20:54 53.23571 9.59706 20412 ft 383 kts 40°
2026-04-23 20:54 53.25494 9.62789 20185 ft 383 kts 40°
2026-04-23 20:54 53.27422 9.65879 19705 ft 383 kts 40°
2026-04-23 20:55 53.29342 9.68964 19094 ft 382 kts 40°
2026-04-23 20:55 53.31251 9.72038 18490 ft 380 kts 40°
2026-04-23 20:55 53.33122 9.75055 17811 ft 377 kts 40°
2026-04-23 20:55 53.34996 9.78082 17127 ft 370 kts 40°
2026-04-23 20:56 53.36818 9.81033 16474 ft 359 kts 40°
2026-04-23 20:56 53.38596 9.83915 15780 ft 354 kts 40°
2026-04-23 20:56 53.40370 9.86787 14939 ft 353 kts 40°
2026-04-23 20:56 53.42134 9.89647 14117 ft 350 kts 40°
2026-04-23 20:57 53.43873 9.92471 13173 ft 347 kts 40°
2026-04-23 20:57 53.45602 9.95286 12238 ft 345 kts 40°
2026-04-23 20:57 53.47318 9.98083 11316 ft 342 kts 40°
2026-04-23 20:57 53.48999 10.00827 10444 ft 340 kts 39°
2026-04-23 20:58 53.50687 10.03583 9515 ft 337 kts 39°
2026-04-23 20:58 53.52358 10.06315 8569 ft 334 kts 39°
2026-04-23 20:58 53.54000 10.09005 7863 ft 325 kts 39°
2026-04-23 20:58 53.55599 10.11631 7177 ft 317 kts 39°
2026-04-23 20:59 53.57159 10.14194 6500 ft 310 kts 38°
2026-04-23 20:59 53.58695 10.16717 5788 ft 304 kts 38°
2026-04-23 20:59 53.60198 10.19185 5090 ft 299 kts 39°
2026-04-23 20:59 53.61652 10.21578 4542 ft 290 kts 39°
2026-04-23 21:00 53.63049 10.23893 4300 ft 271 kts 38°
2026-04-23 21:00 53.64336 10.26036 4228 ft 250 kts 38°
2026-04-23 21:00 53.65608 10.28126 4232 ft 257 kts 38°
2026-04-23 21:00 53.66883 10.30214 4227 ft 255 kts 38°
2026-04-23 21:01 53.68153 10.32301 4224 ft 254 kts 38°
2026-04-23 21:01 53.69420 10.34384 4222 ft 255 kts 38°
2026-04-23 21:01 53.70696 10.36489 4215 ft 256 kts 38°
2026-04-23 21:01 53.72092 10.38163 4197 ft 245 kts 15°
2026-04-23 21:02 53.73734 10.38447 3878 ft 236 kts 347°
2026-04-23 21:02 53.75306 10.37705 3547 ft 233 kts 333°
2026-04-23 21:02 53.76534 10.35868 3455 ft 243 kts 303°
2026-04-23 21:02 53.76992 10.33181 3340 ft 238 kts 273°
2026-04-23 21:03 53.76731 10.30443 3250 ft 232 kts 263°
2026-04-23 21:03 53.76195 10.27917 3194 ft 228 kts 245°
2026-04-23 21:03 53.75295 10.25670 3024 ft 243 kts 240°
2026-04-23 21:03 53.74321 10.23300 3020 ft 247 kts 241°
2026-04-23 21:04 53.73360 10.20947 3026 ft 237 kts 240°
2026-04-23 21:04 53.72431 10.18785 2931 ft 218 kts 240°
2026-04-23 21:04 53.71527 10.16775 2689 ft 213 kts 238°
2026-04-23 21:04 53.70613 10.14802 2400 ft 212 kts 239°
2026-04-23 21:05 53.69728 10.12889 2069 ft 202 kts 240°
2026-04-23 21:05 53.68880 10.11050 1718 ft 194 kts 240°
2026-04-23 21:05 53.68084 10.09311 1364 ft 186 kts 238°
2026-04-23 21:05 53.67294 10.07613 1067 ft 177 kts 239°
2026-04-23 21:06 53.66549 10.06010 851 ft 171 kts 237°
2026-04-23 21:06 53.65795 10.04472 585 ft 169 kts 236°
2026-04-23 21:06 53.65049 10.02944 364 ft 169 kts 235°
2026-04-23 21:06 53.64307 10.01421 221 ft 167 kts 235°
2026-04-23 21:07 53.63579 9.99939 64 ft 158 kts 235°
2026-04-23 21:07 53.63023 9.98788 47 ft 73 kts 230°
2026-04-23 21:07 53.62804 9.98489 48 ft 33 kts 199°
2026-04-23 21:07 53.62751 9.98474 46 ft 0 kts 184°
2026-04-23 21:08 53.62750 9.98474 46 ft 1 kts 184°
2026-04-23 21:08 53.62720 9.98490 46 ft 8 kts 151°
2026-04-23 21:08 53.62712 9.98589 44 ft 11 kts 55°
2026-04-23 21:08 53.62767 9.98709 46 ft 15 kts 51°
2026-04-23 21:09 53.62842 9.98860 46 ft 18 kts 49°
2026-04-23 21:09 53.62931 9.99038 47 ft 21 kts 49°
2026-04-23 21:09 53.63018 9.99210 47 ft 16 kts 56°
2026-04-23 21:09 53.63091 9.99382 47 ft 19 kts 54°
2026-04-23 21:10 53.63177 9.99576 47 ft 23 kts 51°
2026-04-23 21:10 53.63277 9.99761 49 ft 22 kts 48°
2026-04-23 21:10 53.63377 9.99956 50 ft 10 kts 49°
2026-04-23 21:10 53.63398 9.99999 50 ft 6 kts 51°
2026-04-23 21:11 53.63424 10.00083 51 ft 10 kts 84°
2026-04-23 21:11 53.63384 10.00185 50 ft 12 kts 167°
2026-04-23 21:11 53.63316 10.00201 50 ft 9 kts 174°
2026-04-23 21:11 53.63248 10.00211 47 ft 12 kts 175°
2026-04-23 21:12 53.63192 10.00269 48 ft 11 kts 82°
2026-04-23 21:12 53.63197 10.00373 49 ft 0 kts 86°